AO-07 1 07530U 74089B 15155.56127990 -.00000041 00000-0 14853-4 0 9990 2 07530 101.5193 131.4470 0011785 330.2694 140.0387 12.53614637855678 FO-29 1 24278U 96046B 15155.87511389 -.00000020 00000-0 12995-4 0 9990 2 24278 098.5393 126.3339 0351473 102.6877 312.1330 13.53052567928361 SO-33 1 25509U 98061B 15154.88673515 .00000131 00000-0 13091-4 0 9997 2 25509 031.4349 326.9397 0348039 316.7541 040.6245 14.30005572867515 RS-22 1 27939U 03042A 15155.79242727 .00000357 00000-0 73377-4 0 9992 2 27939 097.8406 318.2390 0014329 067.8230 292.4496 14.66046878624375 HO-68 1 36122U 09072B 15155.77844357 -.00000060 00000-0 -43517-4 0 9996 2 36122 100.1951 201.0267 0007931 145.2641 214.8994 13.16327215262822 AO-73 1 39444U 13066AE 15155.11547574 .00001275 00000-0 16950-3 0 9990 2 39444 097.7316 218.3528 0060165 176.9477 183.2115 14.80188464 81483 EO-79 1 40025U 14033R 15155.76853619 .00001110 00000-0 12970-3 0 9999 2 40025 097.9541 056.0165 0011758 220.5737 139.4603 14.87111549 51956 UO-11 1 14781U 84021B 15155.74896144 .00000532 00000-0 72807-4 0 9994 2 14781 097.8025 213.1366 0010037 109.1527 251.0774 14.82394346680185 AO-16 1 20439U 90005D 15155.84856860 .00000090 00000-0 49265-4 0 9993 2 20439 098.5402 092.2250 0010478 191.1349 237.7536 14.32544368324974 LO-19 1 20442U 90005G 15155.42352478 .00000078 00000-0 44635-4 0 9999 2 20442 098.5111 091.4019 0011648 180.4862 179.6312 14.32737043325117 AO-27 1 22825U 93061C 15154.90691361 .00000056 00000-0 39272-4 0 9997 2 22825 098.7077 105.0129 0008336 356.0011 050.5123 14.29881723131043 IO-26 1 22826U 93061D 15154.88745027 .00000078 00000-0 47208-4 0 9996 2 22826 098.7020 105.1626 0008693 347.4670 012.6294 14.30198761131184 GO-32 1 25397U 98043D 15154.89207997 .00000020 00000-0 27599-4 0 9995 2 25397 098.5188 105.7513 0001907 045.6440 021.8331 14.23546618877908 NO-44 1 26931U 01043C 15154.79570523 .00000059 00000-0 54665-4 0 9997 2 26931 067.0509 211.6370 0005913 267.3690 092.6734 14.30315564713881 SO-50 1 27607U 02058C 15155.49163596 .00000347 00000-0 70190-4 0 9992 2 27607 064.5553 237.5637 0080906 290.7662 068.4784 14.74730555669414 CO-55 1 27844U 03031E 15154.62464904 .00000152 00000-0 89132-4 0 9998 2 27844 098.6951 163.3448 0009343 347.9259 132.9788 14.21801833618512 CO-57 1 27848U 03031J 15155.83802291 .00000148 00000-0 87668-4 0 9998 2 27848 098.7048 164.4417 0009354 351.8706 131.1843 14.21449135618599 AO-51 1 28375U 04025K 15155.40126597 .00000148 00000-0 56794-4 0 9995 2 28375 098.2919 096.2124 0083040 009.1487 351.1193 14.41661498574646 CP3 1 31129U 07012N 15155.14158888 .00000761 00000-0 17340-3 0 9998 2 31129 097.9796 121.4687 0096638 355.4177 064.6999 14.55805351431220 CO-65 1 32785U 08021C 15155.19491478 .00001008 00000-0 11869-3 0 9993 2 32785 097.6502 199.2358 0015032 108.0998 328.9930 14.86843293384309 PRISM 1 33493U 09002B 15155.76413269 .00001916 00000-0 18905-3 0 9991 2 33493 098.2494 352.5640 0016629 015.6291 344.5450 14.93201976344720 SOHLA-1 1 33496U 09002E 15154.99137784 .00000248 00000-0 48433-4 0 9990 2 33496 098.2101 282.7621 0005951 194.2209 288.1980 14.71357076341233 TISAT-1 1 36799U 10035E 15155.85453215 .00001763 00000-0 19594-3 0 9991 2 36799 098.0158 256.0867 0011830 244.3017 239.7541 14.88454389265126 STUDSAT 1 36801U 10035G 15155.83458412 .00014045 00000-0 82609-3 0 9991 2 36801 098.0610 274.5909 0007270 177.9149 298.3480 15.11763926266104 ALMASAT-1 1 38078U 12006B 15155.89109939 .00017191 34375-5 29386-3 0 9997 2 38078 069.4604 271.4291 0484683 274.4446 080.1496 14.78200230173227 CUBEBUG-1 1 39153U 13018D 15155.77331408 .00000849 00000-0 12133-3 0 9998 2 39153 098.0175 240.1731 0015965 294.9745 064.9807 14.79205349113640 ESTCUBE-1 1 39161U 13021C 15155.75460548 .00000580 00000-0 10236-3 0 9991 2 39161 098.0700 238.7898 0009840 003.5433 356.5831 14.71148001111416 DUCHIFAT-1 1 40021U 14033M 15155.66684290 .00001648 00000-0 18569-3 0 9997 2 40021 097.9559 056.2295 0012356 221.5636 138.4641 14.87974672 51945 NANOSATCBR1 1 40024U 14033Q 15155.72075586 .00001417 00000-0 16212-3 0 9996 2 40024 097.9542 056.0836 0011583 220.0842 139.9520 14.87566399 51948 DTUSAT-2 1 40030U 14033W 15155.72338669 .00001141 00000-0 13446-3 0 9997 2 40030 097.9530 055.7215 0011300 212.9998 147.0514 14.86732842 51937 ANTELSAT 1 40034U 14033AA 15155.74438331 .00000651 00000-0 10721-3 0 9998 2 40034 097.9459 048.0648 0060141 158.5226 201.8549 14.72685096 51460 MET-2/21 1 22782U 93055A 15155.19971784 .00000059 00000-0 40077-4 0 9992 2 22782 082.5504 253.9711 0022203 001.2559 017.8517 13.83771455 98804 OKEAN-4 1 23317U 94066A 15155.51588142 .00000852 00000-0 92928-4 0 9991 2 23317 082.5384 097.3334 0020713 016.6290 100.4955 14.86663312115432 NOAA-14 1 23455U 94089A 15155.46138984 .00000017 00000-0 31645-4 0 9990 2 23455 098.7524 237.1753 0010525 114.3896 312.1836 14.14042324 53736 NOAA-15 1 25338U 98030A 15155.52351065 .00000140 00000-0 77977-4 0 9991 2 25338 098.7721 154.1511 0010134 199.3153 160.7644 14.25626090887034 RESURS 1 25394U 98043A 15155.84649762 -.00000045 00000-0 -13335-5 0 9991 2 25394 098.4641 111.3746 0001012 010.8822 041.6728 14.24457902878521 FENGYUN1 1 25730U 99025A 15155.15205014 .00000561 00000-0 32204-3 0 9993 2 25730 098.9430 120.0175 0017884 177.1247 247.9867 14.13358834827218 OKEAN-0 1 25860U 99039A 15155.45614079 .00000372 00000-0 61494-4 0 9994 2 25860 098.0931 123.4833 0001647 069.5855 087.0054 14.76039869854108 NOAA-16 1 26536U 00055A 15155.42062444 .00000017 00000-0 32983-4 0 9992 2 26536 098.9433 221.4105 0009436 268.4513 091.5578 14.13096788757850 NOAA-17 1 27453U 02032A 15155.50940143 .00000015 00000-0 24194-4 0 9991 2 27453 098.3391 142.1338 0010858 215.3186 144.7276 14.24884580672859 NOAA-18 1 28654U 05018A 15155.45105763 .00000101 00000-0 80608-4 0 9995 2 28654 099.1832 147.7832 0014327 001.0662 359.0536 14.12202166517271 NOAA-19 1 33591U 09005A 15155.48170726 .00000132 00000-0 96562-4 0 9995 2 33591 098.9890 105.3301 0013467 202.0139 158.0455 14.11939634325691 HUBBLE 1 20580U 90037B 15154.67593795 .00001280 00000-0 71011-4 0 9996 2 20580 028.4697 243.2258 0003219 093.5031 030.0957 15.07426822177775 ISS 1 25544U 98067A 15155.94860495 .00005605 00000-0 88112-4 0 9992 2 25544 051.6425 145.1379 0004512 024.2972 079.5468 15.55294993946137 CO-58 1 28895U 05043F 15154.78536878 .00000437 00000-0 94253-4 0 9993 2 28895 097.8214 343.2581 0016626 344.2467 015.8216 14.62776297511632 FALCON 1 30776U 07006E 15154.31192574 .00005551 00000-0 22476-3 0 9994 2 30776 035.4284 088.1027 0002317 218.9168 281.5459 15.24130648454185 MAST 1 31126U 07012K 15155.50640610 .00000482 00000-0 11386-3 0 9998 2 31126 097.9595 124.1143 0090449 336.3617 161.9453 14.56050196431644 CAPE1 1 31130U 07012P 15155.46449206 .00000700 00000-0 16140-3 0 9992 2 31130 097.9813 121.2533 0097363 356.2873 003.7592 14.55481769431033 COMPASS 1 32787U 08021E 15155.11848410 .00001746 00000-0 18327-3 0 9994 2 32787 097.6525 203.1901 0014861 096.9712 263.3197 14.90662806384562 AAUSAT2 1 32788U 08021F 15155.12159372 .00001885 00000-0 19251-3 0 9999 2 32788 097.6535 204.6840 0014274 094.2438 266.0413 14.91698313384650 DO-64 1 32789U 08021G 15155.23992196 .00004442 00000-0 36408-3 0 9996 2 32789 097.6712 215.5070 0011540 082.9057 318.1527 14.99723296385145 CO-66 1 32791U 08021J 15155.18649811 .00001410 00000-0 15626-3 0 9997 2 32791 097.6521 201.1420 0015595 102.1005 258.1961 14.88730327384389 RS-30 1 32953U 08025A 15155.84101043 .00000010 00000-0 -13620-7 0 9996 2 32953 082.5043 341.9220 0019815 105.4401 254.8862 12.43060330319073 METEOR-M 1 35865U 09049A 15155.78017606 .00000072 00000-0 51475-4 0 9996 2 35865 098.5017 196.5709 0003270 133.4408 358.3499 14.22028425296447 RS-38 1 35869U 09049E 15155.71956535 .00000020 00000-0 28057-4 0 9999 2 35869 098.4917 196.1450 0004949 140.0730 220.0823 14.22296312296486 JUGNU 1 37839U 11058B 15154.51175797 .00000353 00000-0 46309-4 0 9990 2 37839 019.9621 285.4237 0018906 255.8581 172.3133 14.12468477188280 SRMSAT 1 37841U 11058D 15155.49323863 .00000354 00000-0 49829-4 0 9991 2 37841 019.9727 305.9152 0011799 192.5483 220.3076 14.10479992188153 RAX-2 1 37853U 11061D 15155.50706054 .00004628 00000-0 28790-3 0 9998 2 37853 101.7125 000.3153 0196406 112.9862 304.2468 14.95954100195215 AUBIESAT 1 37854U 11061E 15155.04825819 .00005137 00000-0 30714-3 0 9994 2 37854 101.7193 003.0643 0189581 109.4060 042.6427 14.98087081195252 HRBE 1 37855U 11061F 15155.55540403 .00004713 00000-0 28671-3 0 9992 2 37855 101.7185 002.4530 0194580 110.0983 252.1279 14.96928634195269 HORYU-2 1 38340U 12025D 15155.49199749 .00000942 00000-0 15041-3 0 9996 2 38340 098.3120 125.0941 0012985 131.7474 228.4846 14.74269871163662 RS-40 1 38735U 12041C 15155.79251865 .00000040 00000-0 21992-3 0 9994 2 38735 082.4778 067.7097 0016082 204.1868 155.8469 12.42567674129370 PROITERES 1 38756U 12047B 15155.79170786 .00000360 00000-0 60316-4 0 9994 2 38756 098.2189 254.8656 0011671 344.4604 015.6251 14.75809370147179 BEESAT-3 1 39134U 13015E 15155.45136301 .00004463 00000-0 26632-3 0 9999 2 39134 064.8733 098.2601 0031753 253.4771 106.2863 15.12026704116773 BEESAT-2 1 39136U 13015G 15154.76474940 .00003292 00000-0 20830-3 0 9991 2 39136 064.8735 102.7476 0032094 253.1503 106.6099 15.10419199116639 ZACUBE-1 1 39417U 13066B 15155.14669364 .00001047 00000-0 14206-3 0 9994 2 39417 097.7312 218.1528 0060739 177.6595 182.4913 14.79670300 82709 TRITON-1 1 39427U 13066M 15155.38337690 .00000710 00000-0 12404-3 0 9999 2 39427 097.7162 206.8877 0115268 207.3492 152.1616 14.66610517 81982 DELFIN3XT 1 39428U 13066N 15155.71853104 .00001263 00000-0 21750-3 0 9998 2 39428 097.7165 205.5323 0123815 211.1119 148.2714 14.65324466 81916 GOMX-1 1 39430U 13066Q 15155.58355484 .00000447 00000-0 92262-4 0 9994 2 39430 097.7077 199.6048 0152610 229.2433 129.5447 14.58026530 81549 MO-76 1 39436U 13066W 15154.71297539 .00012848 00000-0 87508-3 0 9994 2 39436 097.7451 230.7891 0024429 149.1130 211.1540 15.06168935 83469 LO-74 1 39440U 13066AA 15155.24084022 .00000966 00000-0 14505-3 0 9994 2 39440 097.7256 213.6894 0082074 188.6463 171.3338 14.74488959 82429 PUCPSAT-1 1 39442U 13066AC 15155.17975193 .00001599 00000-0 17609-3 0 9997 2 39442 097.7404 225.4988 0033782 163.7437 196.4872 14.88527074 81931 SPROUT 1 39770U 14029E 15155.36958380 .00000883 00000-0 11299-3 0 9995 2 39770 097.8698 252.3612 0008722 237.8737 122.1667 14.83784977 55735 POPSAT-HIP1 1 40028U 14033U 15155.80563155 .00000835 00000-0 99433-4 0 9993 2 40028 097.9560 056.1283 0013022 218.8685 141.1594 14.86971514 51943 EO-80 1 40032U 14033Y 15155.66416264 .00001063 00000-0 12587-3 0 9998 2 40032 097.9537 055.6754 0011280 213.2904 146.7603 14.86662701 51921 VELOX-1 1 40057U 14034E 15155.79424841 .00000981 00000-0 15097-3 0 9997 2 40057 098.2154 233.6914 0009815 279.6943 080.3155 14.75788556 50056 DAURIA DX 1 1 40071U 14037C 15155.75846844 .00000447 00000-0 66103-4 0 9995 2 40071 098.3567 226.6599 0007264 281.8965 078.1428 14.80372502 48957 UKUBE-1 1 40074U 14037F 15155.74228641 .00001023 00000-0 13576-3 0 9992 2 40074 098.3583 227.3834 0003470 294.2509 065.8329 14.82146813 48998 HODOYOSHI-1 1 40299U 14070B 15155.77767655 .00002234 00000-0 10906-3 0 9993 2 40299 097.4560 237.4465 0013476 169.3804 344.3611 15.19244440 31932 CHUBUSAT-1 1 40300U 14070C 15155.78048045 .00002580 00000-0 13126-3 0 9993 2 40300 097.4531 236.7742 0022751 173.2394 340.3269 15.17517717 31895 QSAT-EOS 1 40301U 14070D 15155.81394233 .00004951 00000-0 25202-3 0 9993 2 40301 097.4493 236.1815 0032577 175.2374 325.5903 15.16805124 31863 TSUBAME 1 40302U 14070E 15155.77858484 .00003191 00000-0 18133-3 0 9992 2 40302 097.4471 235.1120 0043457 178.8022 334.1585 15.12810351 31794 FIREBIRD FU3 1 40377U 15003B 15155.69773154 .00004727 00000-0 24014-3 0 9993 2 40377 099.1183 186.8586 0157351 294.5957 063.8941 15.07381183 18668 FIREBIRD FU4 1 40378U 15003C 15155.69575492 .00004661 00000-0 23662-3 0 9994 2 40378 099.1185 186.8619 0157521 294.5646 063.9229 15.07401644 18667 GRIFEX 1 40379U 15003D 15155.79338554 .00002696 00000-0 14166-3 0 9997 2 40379 099.1194 186.9103 0158380 295.4989 062.9925 15.06737220 18675 LAMBDA-SAT 1 40458U 98067GB 15136.30676273 .20783109 12527-4 14817-2 0 9995 2 40458 051.6075 233.7697 0010355 318.5347 043.1720 16.39926603 21161 PSAT 1 40652U 15154.58082611 .00016606 00000-0 43532-3 0 0028 2 40652 054.9941 279.6217 0248646 216.4608 237.6933 15.13133374 00219 LIGHTSAIL-1 1 40658U 15154.58498645 .00012439 00000-0 33532-3 0 0021 2 40658 055.0069 279.7147 0249269 215.8824 234.0970 15.12547949 00214 BRICSAT-P 1 40661U 15154.58051229 .00012120 00000-0 32232-3 0 0032 2 40661 055.0054 279.6655 0248813 216.3914 233.5724 15.13017004 00211 /EX